Погода в Михайлючке

Украина / Хмельницкая область     50°17′23″N   27°18′38″E
темп.,
°C
ветер,
м/с
пор.,
м/с
влажн.,
%
обл.,
%
осадки,
мм/ч
давл.,
гПа
погр.,
м
19 мая, ср
ср1900:00+11сз61198100 0.5 1000412
03:00+12сз61197100 0.5 1001602
06:00+10сз71394100 0.3 1002652
09:00+10сз71391100 1.5 1004748
12:00+12сз71177100 0.4 10051203
15:00+15сз61165100 0.4 10061571
18:00+13зсз61085100 0.9 1007737
21:00+11зсз61192100 1.4 1009491
20 мая, чт
чт2000:00+10зсз4995100 0.1 1010414
03:00+9зсз489825 0.1 1010260
06:00+7зсз389821 0.0 1010218
09:00+12сз478249 0.0 1010587
12:00+16ссз456398 0.1 10101472
15:00+16ссз4564100 1.0 10101153
18:00+15с5770100 0.3 10111005
21:00+12с3880100 0.5 1013245
21 мая, пт
пт2100:00+10с2284100 0.0 101437
03:00+9ссз2585100 0.0 101591
06:00+8ссв2790100 0.0 1016162
09:00+13ссв357387 0.0 1017457
12:00+16с3453100 0.0 10171436
15:00+18с334540 0.0 10172080
18:00+18с224637 0.0 10161665
21:00+13ссв017083 0.0 101811
22 мая, сб
сб2200:00+10ю11815 0.0 101810
03:00+8ююв33791 0.0 101832
06:00+8ю23825 0.0 101841
09:00+15ююв356336 0.0 1017428
12:00+18ююв3450100 0.0 10161330
15:00+21ююв4545100 0.0 10141764
18:00+19ююв4660100 0.0 10131059
21:00+14ююв3783100 0.0 1013121
23 мая, вс
вс2300:00+12ю3893100 0.0 1012140
03:00+12юз31088100 0.0 1011337
06:00+13ю3586100 0.0 1011135
09:00+15з51073100 0.0 1011742
12:00+13зсз3576100 0.0 1012553
15:00+16зсз4564100 0.0 1012907
18:00+12зюз2491100 0.8 1013295
21:00+11з2291100 1.1 101431